Printer-friendly version

IAU Minor Planet Center

Minor Planet Center

MPEC 2007-F57 : 2007 FQ3

The following Minor Planet Electronic Circular may be linked-to from your own Web pages, but must not otherwise be redistributed electronically.


Read MPEC 2007-F56 Read MPEC 2007-F58


M.P.E.C. 2007-F57                                Issued 2007 Mar. 21, 16:25 UT

     The Minor Planet Electronic Circulars contain information on unusual
         minor planets and routine data on comets.  They are published
   on behalf of Commission 20 of the International Astronomical Union by the
          Minor Planet Center, Smithsonian Astrophysical Observatory,
                          Cambridge, MA 02138, U.S.A.

             Prepared using the Tamkin Foundation Computer Network

                              MPC@CFA.HARVARD.EDU
          URL http://cfa-www.harvard.edu/iau/mpc.html  ISSN 1523-6714

                                   2007 FQ3

Observations:
     K07F03Q* C2007 03 20.28276 11 26 34.72 +01 07 54.6          19.8 V EF057G96
     K07F03Q  C2007 03 20.28995 11 26 39.30 +01 07 39.6          20.8 V EF057G96
     K07F03Q  C2007 03 20.29729 11 26 43.87 +01 07 23.7          20.4 V EF057G96
     K07F03Q  C2007 03 20.30451 11 26 48.44 +01 07 08.1          20.9 V EF057G96
     K07F03Q  C2007 03 20.47200 11 28 35.72 +01 01 07.3          20.0 V EF057G96
     K07F03Q  C2007 03 20.47289 11 28 36.40 +01 01 05.1          21.0 V EF057G96
     K07F03Q  C2007 03 20.47380 11 28 36.94 +01 01 03.3          19.4 V EF057G96
     K07F03Q  C2007 03 20.47470 11 28 37.48 +01 01 01.2          20.7 V EF057G96
     K07F03Q  C2007 03 21.21433 11 37 19.78 +00 33 58.5          20.3 V EF057G96
     K07F03Q  C2007 03 21.21517 11 37 20.34 +00 33 56.0          20.5 V EF057G96
     K07F03Q  C2007 03 21.21699 11 37 21.54 +00 33 52.7          20.0 V EF057G96
     K07F03Q  C2007 03 21.21764 11 37 22.04 +00 33 51.0                 EF057G96

Observer details:
G96 Mt. Lemmon Survey.  Observer A. R. Gibbs.  Measurers E. C. Beshore,
    E. J. Christensen, G. J. Garradd, A. R. Gibbs, A. D. Grauer, R. E. Hill,
    R. A. Kowalski, S. M. Larson, R. H. McNaught.  1.5-m reflector + CCD.

Orbital elements:
2007 FQ3                                                 Earth MOID = 0.0605 AU
Epoch 2007 Apr. 10.0 TT = JDT 2454200.5                 MPC
M   4.12315              (2000.0)            P               Q
n   0.28532555     Peri.    2.89503     -0.99496615     +0.10019729
a   2.2851196      Node   182.85715     -0.09261015     -0.92580775
e   0.5368661      Incl.    1.94333     -0.03828465     -0.36447292
P   3.45           H   25.6           G   0.15           U   8
Residuals in seconds of arc
070320 G96  0.6-  0.1-    070320 G96  0.4-  0.1+    070321 G96  0.3-  0.2+
070320 G96  0.4+  0.2+    070320 G96  1.0+  0.1-    070321 G96  0.2-  0.5-
070320 G96  0.2-  0.1+    070320 G96  0.1+  0.0     070321 G96  0.3-  0.3+
070320 G96  0.3+  0.1-    070320 G96  0.7-  0.1-    070321 G96  0.8+  0.0

Ephemeris:
2007 FQ3                 a,e,i = 2.29, 0.54, 2                   q = 1.0583
Date    TT    R. A. (2000) Decl.     Delta      r     Elong.  Phase     V
2007 03 21    11 34.76   +00 43.1    0.0648   1.060   173.7     5.9    20.3
2007 03 26    12 37.41   -02 34.8    0.0612   1.058   175.1     4.6    20.1
2007 03 31    13 41.61   -05 45.6    0.0634   1.060   163.6    15.5    20.6
2007 04 05    14 36.30   -08 07.6    0.0708   1.065   154.6    23.8    21.1
2007 04 10    15 17.20   -09 37.5    0.0821   1.073   149.1    28.6    21.6
2007 04 15    15 45.76   -10 31.8    0.0959   1.085   146.8    30.4    22.0
2007 04 20    16 05.04   -11 06.6    0.111    1.099   146.8    30.0    22.3

Kyle E. Smalley              (C) Copyright 2007 MPC           M.P.E.C. 2007-F57

Read MPEC 2007-F56 Read MPEC 2007-F58


Our Web policy. Index to the CBAT/MPC/ICQ pages.


Valid HTML 4.01!